Wind_Speed
25 25 27 28 29 29 30 31 31 32 32 33 33 33 35 37 37 38 38 36 36 34 33 30 31 31 32 30 30 32 32 26 23 28 31 39 36 35 36 34 32 32 28 27 24
30 30 30 31 31 31 33 34 35 35 36 36 36 35 36 36 37 39 39 40 39 39 37 36 34 34 34 33 34 35 33 23 27 29 34 41 39 38 39 37 35 34 30 28 26
32 32 33 34 34 35 35 36 37 37 37 38 38 38 37 38 39 37 38 38 41 42 42 40 39 37 38 36 35 36 32 33 30 32 37 40 42 41 41 39 36 37 36 31 28
35 36 37 37 38 38 38 39 39 40 40 40 40 40 41 44 42 42 40 40 39 42 44 46 44 42 40 41 38 39 34 35 33 36 37 39 44 42 45 41 40 40 38 33 30
38 39 40 40 42 43 44 45 45 46 46 46 45 44 43 44 47 47 44 44 42 40 43 46 49 48 44 43 43 41 36 39 37 38 37 41 42 44 46 45 43 42 41 37 34
43 44 44 44 44 45 46 48 50 51 51 51 51 47 47 47 46 49 51 48 47 45 45 45 48 52 51 48 46 44 39 40 41 40 40 40 40 47 46 48 46 45 41 39 37
46 46 47 47 48 50 51 52 53 55 56 56 55 54 53 55 51 49 51 53 53 52 49 49 49 50 54 54 53 50 46 43 44 42 43 42 43 44 45 50 47 46 44 42 39
48 50 51 51 51 53 54 56 54 56 56 59 58 59 58 59 58 56 55 55 55 58 56 54 54 54 53 54 56 55 53 48 45 45 45 45 42 41 47 51 50 48 47 44 41
49 49 51 54 55 56 56 57 58 56 57 56 55 55 57 60 62 62 60 58 59 58 59 57 60 59 57 54 57 58 57 54 48 50 48 48 45 40 47 51 51 50 50 48 45
51 51 52 54 57 57 57 56 56 54 55 56 56 57 57 60 63 63 64 65 64 63 64 63 64 64 63 62 59 59 62 60 53 49 46 50 49 43 47 52 54 54 53 52 49
55 56 57 59 58 57 55 54 54 55 52 54 56 58 58 59 62 65 67 68 70 69 65 68 70 72 67 64 60 60 61 63 56 51 51 53 55 48 48 56 56 58 56 54 50
59 58 58 56 54 54 55 54 54 56 56 54 57 59 59 61 62 66 69 70 72 72 72 71 73 69 72 70 68 67 63 62 61 59 55 53 58 53 50 56 58 58 58 55 52
57 55 54 54 53 53 53 53 54 53 54 56 59 62 66 65 64 68 70 73 74 73 75 79 72 77 77 74 74 70 69 62 63 62 65 57 61 56 53 56 57 59 58 57 53
52 53 54 53 52 52 52 50 48 48 52 59 64 69 66 66 68 71 74 75 75 75 81 84 75 81 81 80 76 78 69 66 66 65 68 64 65 58 55 56 56 60 59 57 56
52 53 52 51 50 50 47 44 46 48 57 64 67 68 69 72 75 77 76 77 79 76 83 78 81 79 80 80 79 77 74 71 70 68 67 67 69 51 57 55 52 55 60 58 57
50 50 50 50 49 46 44 45 47 53 64 67 69 69 73 76 77 77 77 73 75 75 73 77 73 76 79 78 81 76 76 74 74 68 73 68 68 65 50 52 54 54 59 59 59
49 50 49 47 44 43 44 46 52 57 63 68 70 73 76 76 71 64 61 54 55 56 55 62 68 67 71 80 84 78 75 74 76 75 70 63 69 71 51 53 55 53 55 57 59
47 47 44 42 42 44 45 51 57 63 66 66 71 74 71 61 50 43 44 43 38 44 44 50 42 40 67 67 82 85 80 82 80 77 68 73 74 71 61 50 55 52 54 56 60
45 43 43 43 44 45 49 55 60 65 66 70 73 70 62 39 37 35 32 30 24 36 30 45 48 42 31 66 60 55 75 76 75 65 72 72 66 72 68 55 49 40 54 55 56
44 41 42 42 45 48 52 56 62 64 66 67 64 54 46 39 34 31 31 27 29 30 23 34 45 41 27 25 64 60 69 67 69 60 73 73 70 70 70 61 57 48 29 52 55
43 40 41 43 45 48 52 57 61 62 64 59 50 41 36 37 33 31 27 26 30 32 33 19 33 29 30 34 39 69 60 50 61 75 75 74 71 65 68 64 60 53 48 40 51
42 39 41 43 45 48 52 58 59 56 52 49 39 33 33 33 33 33 31 25 23 30 26 11 26 31 37 28 36 41 56 53 60 75 75 70 71 47 55 57 63 54 44 40 48
40 39 40 43 45 48 53 56 58 52 41 37 35 34 30 30 35 28 28 9 15 29 17 21 18 34 45 27 37 46 45 50 59 62 76 72 72 64 53 29 54 61 55 43 41
40 41 41 43 44 49 53 54 53 45 33 31 31 30 32 30 24 31 31 7 8 24 24 17 23 26 32 29 21 44 46 47 55 68 68 71 68 61 42 28 27 37 57 50 39
39 40 42 43 45 49 52 54 46 35 32 26 21 26 29 29 24 26 26 16 6 7 15 22 20 20 27 27 33 34 36 44 50 63 68 66 65 60 51 32 30 31 38 51 43
38 41 43 44 46 50 49 48 44 26 32 20 28 20 24 25 28 26 24 19 13 19 25 23 23 22 32 36 35 46 34 34 40 46 59 67 62 57 51 46 36 34 27 38 49
38 41 43 44 46 50 47 48 37 26 25 25 26 26 23 28 28 24 26 24 21 18 20 21 23 24 21 38 49 43 34 40 43 43 48 63 64 58 53 41 55 43 40 34 37
Wind_Direction
283 282 283 283 282 282 281 281 281 282 282 281 280 279 279 278 276 274 269 266 268 267 269 269 268 265 262 260 259 258 255 250 249 244 230 232 227 221 223 226 218 216 211 212 214
286 285 284 284 284 283 282 281 281 282 282 280 280 280 279 277 276 276 272 269 264 263 264 266 263 263 262 259 256 258 258 252 240 239 232 228 225 217 219 223 219 217 213 213 214
284 284 284 283 282 282 282 282 282 282 282 281 281 278 278 278 278 276 273 271 267 262 261 261 263 261 262 260 256 252 256 246 242 236 236 228 222 216 215 220 219 219 215 211 212
285 284 283 282 283 283 281 281 282 282 281 280 279 278 278 278 275 274 274 271 267 267 260 258 259 260 260 260 256 253 249 250 245 240 237 231 225 213 213 218 218 221 219 213 210
285 286 284 284 285 285 284 283 281 281 280 278 276 276 276 275 276 273 271 270 269 265 264 259 258 257 255 258 257 257 247 247 244 243 239 236 229 219 211 218 216 221 223 217 212
289 289 287 285 284 283 283 284 286 285 282 280 277 273 274 266 269 269 272 270 268 266 264 262 258 256 254 255 256 257 250 247 245 243 239 238 234 225 210 217 218 220 224 220 215
289 288 288 288 290 291 291 291 291 290 288 285 283 278 277 277 274 271 266 267 267 266 264 263 260 258 255 253 251 255 253 247 246 243 243 238 231 229 217 219 218 221 223 223 220
289 289 290 290 290 291 292 291 289 287 284 283 283 281 278 274 276 277 275 269 265 265 263 262 260 260 258 254 251 252 253 249 245 244 243 242 230 232 223 221 218 220 223 224 223
289 289 290 292 292 291 290 288 286 283 281 279 279 279 277 274 274 274 273 271 269 264 262 263 259 257 256 256 253 249 247 250 245 243 241 242 236 228 229 223 219 219 223 223 223
291 291 291 292 290 287 285 283 281 279 280 284 285 286 282 280 279 278 276 273 271 268 262 261 260 257 253 251 251 252 248 250 253 249 245 244 240 229 227 226 220 218 220 222 223
291 290 291 289 286 287 287 287 287 286 288 288 289 288 287 283 282 278 275 272 270 266 263 262 259 257 259 255 254 254 252 250 252 252 245 241 241 234 226 228 222 219 219 222 223
288 287 287 288 289 290 290 288 288 290 290 289 289 288 286 282 278 278 274 271 270 269 268 262 257 259 258 254 250 248 248 246 246 250 246 244 242 235 227 226 226 221 220 222 224
287 290 291 291 290 290 290 291 291 292 291 292 292 293 293 290 285 282 277 272 268 266 265 264 258 257 256 251 250 245 247 247 248 245 245 243 241 234 229 228 224 225 221 221 224
292 291 290 290 290 291 292 291 289 292 294 296 300 299 297 295 291 289 286 279 276 268 266 262 258 258 254 251 250 245 242 244 245 243 243 244 242 233 231 228 226 226 223 222 223
291 290 291 291 291 291 289 286 290 296 299 306 304 302 301 299 295 291 288 285 278 271 267 259 257 254 251 250 247 248 242 241 240 242 242 238 244 224 231 229 226 226 227 223 222
294 294 293 293 292 290 286 288 296 299 302 306 304 304 303 301 297 294 289 282 274 267 260 258 252 245 243 238 240 239 237 239 240 240 240 233 241 232 226 228 228 227 226 226 224
298 297 295 293 291 291 290 294 299 303 305 306 306 307 305 303 299 293 285 273 269 263 254 251 249 239 238 232 230 228 229 232 235 236 240 237 236 234 224 228 231 227 227 226 226
300 298 295 293 293 293 295 301 304 306 308 307 308 309 307 305 297 290 281 280 271 249 253 245 242 237 224 232 228 227 225 226 229 234 237 237 233 234 230 228 230 227 229 226 226
302 299 295 295 296 297 299 304 308 310 312 313 312 310 306 300 294 291 295 299 263 236 259 250 243 230 223 224 223 217 221 226 228 232 234 236 233 234 234 226 230 239 229 229 226
304 300 298 299 299 299 303 307 311 314 315 316 312 307 303 302 294 294 300 300 236 246 248 246 254 234 235 236 220 226 223 221 219 222 229 232 234 235 235 231 230 228 222 225 228
303 301 298 299 300 304 309 312 315 317 317 314 308 301 301 301 302 302 308 306 238 233 231 271 252 219 216 212 234 220 213 224 223 224 226 230 233 238 237 236 235 228 228 231 228
304 301 301 302 306 309 313 316 319 320 315 307 301 298 300 302 300 303 302 303 247 226 237 233 246 242 224 222 223 232 230 214 216 215 221 229 230 238 245 242 230 232 225 225 232
303 301 302 304 310 313 315 318 321 319 309 299 297 295 301 297 302 304 310 307 272 239 244 232 236 235 230 225 212 214 225 222 224 217 219 220 223 225 235 237 237 234 228 227 228
303 303 305 306 313 316 318 323 320 316 303 285 293 297 296 294 298 297 307 300 272 258 255 270 222 229 234 228 222 223 212 219 220 216 217 222 224 223 220 223 223 230 231 226 221
305 305 306 311 318 319 321 321 317 312 291 288 296 302 291 297 292 286 292 274 242 249 262 265 243 244 239 225 223 215 212 213 216 217 218 216 224 220 221 208 208 215 222 222 216
306 307 308 314 318 318 324 319 312 300 284 289 285 294 293 298 297 293 295 279 266 244 251 256 242 232 230 239 218 216 206 211 215 216 218 216 222 222 220 205 201 202 202 201 211
310 309 311 317 319 319 322 316 307 279 282 277 277 289 299 294 290 292 300 276 283 272 259 261 253 250 223 229 218 222 216 207 211 211 213 217 219 221 214 208 207 202 203 198 201
Height
5763 5762 5761 5760 5759 5758 5757 5756 5755 5754 5753 5754 5753 5753 5752 5750 5750 5750 5750 5752 5751 5753 5753 5753 5754 5754 5754 5755 5755 5755 5757 5761 5764 5764 5766 5765 5769 5773 5778 5781 5784 5786 5788 5790 5793
5758 5757 5756 5754 5753 5752 5751 5750 5748 5747 5747 5747 5746 5745 5744 5743 5742 5742 5743 5742 5743 5745 5746 5746 5746 5747 5747 5747 5748 5749 5751 5758 5754 5756 5756 5756 5761 5764 5772 5776 5780 5781 5784 5786 5789
5750 5749 5748 5748 5746 5744 5743 5742 5741 5740 5739 5739 5739 5739 5736 5734 5734 5734 5734 5734 5735 5736 5737 5738 5738 5738 5739 5740 5742 5743 5747 5746 5749 5747 5748 5751 5754 5757 5765 5770 5775 5777 5777 5780 5785
5743 5742 5740 5739 5738 5737 5736 5734 5733 5732 5731 5730 5730 5730 5728 5725 5725 5724 5725 5725 5725 5726 5727 5728 5730 5731 5732 5732 5734 5734 5738 5739 5742 5740 5742 5745 5747 5751 5756 5765 5767 5771 5772 5776 5779
5734 5733 5732 5730 5729 5728 5726 5725 5723 5722 5721 5720 5720 5720 5721 5718 5714 5714 5715 5716 5717 5716 5716 5719 5720 5721 5723 5724 5725 5725 5732 5730 5732 5734 5735 5737 5741 5745 5750 5755 5760 5764 5767 5771 5774
5725 5723 5721 5720 5718 5716 5715 5714 5712 5710 5708 5707 5707 5708 5710 5706 5704 5704 5704 5704 5705 5707 5707 5707 5708 5709 5713 5716 5716 5717 5722 5723 5723 5726 5727 5730 5735 5734 5745 5746 5753 5758 5762 5766 5769
5713 5711 5709 5707 5706 5704 5702 5700 5697 5695 5694 5693 5692 5693 5694 5690 5688 5691 5694 5694 5693 5694 5696 5696 5696 5697 5700 5704 5706 5708 5711 5714 5715 5718 5719 5720 5725 5729 5738 5739 5745 5751 5755 5760 5764
5701 5699 5698 5697 5695 5693 5691 5690 5687 5684 5683 5680 5679 5679 5677 5675 5674 5675 5678 5681 5682 5680 5682 5683 5684 5687 5689 5694 5696 5698 5699 5703 5708 5708 5710 5711 5720 5724 5727 5729 5736 5743 5748 5753 5757
5692 5689 5687 5685 5682 5679 5679 5677 5676 5673 5671 5669 5667 5665 5663 5661 5660 5660 5662 5665 5666 5667 5667 5667 5669 5673 5678 5681 5682 5687 5689 5691 5697 5696 5699 5701 5708 5714 5716 5720 5727 5733 5739 5744 5750
5679 5675 5674 5671 5670 5667 5666 5665 5663 5660 5659 5653 5652 5651 5650 5646 5644 5642 5642 5644 5649 5652 5652 5652 5652 5657 5664 5663 5668 5672 5675 5680 5685 5690 5692 5691 5695 5703 5706 5709 5715 5722 5729 5734 5741
5665 5662 5660 5658 5656 5652 5651 5650 5649 5646 5645 5640 5635 5633 5634 5633 5629 5624 5623 5628 5625 5630 5636 5636 5635 5643 5650 5653 5660 5661 5663 5667 5677 5677 5678 5681 5680 5691 5695 5697 5705 5711 5718 5726 5734
5653 5650 5648 5645 5641 5637 5636 5634 5633 5630 5629 5625 5622 5621 5620 5616 5616 5607 5607 5609 5608 5610 5612 5615 5620 5635 5628 5634 5638 5644 5649 5655 5659 5663 5667 5669 5668 5678 5684 5687 5695 5702 5709 5719 5726
5640 5636 5634 5631 5627 5624 5623 5621 5618 5617 5613 5611 5606 5603 5600 5600 5596 5588 5587 5585 5587 5593 5589 5581 5611 5601 5607 5615 5619 5628 5635 5645 5647 5648 5649 5654 5653 5667 5675 5676 5685 5692 5701 5709 5718
5625 5622 5620 5617 5616 5612 5610 5609 5606 5605 5600 5596 5591 5584 5580 5577 5573 5566 5559 5559 5561 5568 5556 5556 5595 5579 5585 5593 5603 5607 5624 5623 5627 5628 5635 5639 5637 5653 5663 5667 5675 5684 5691 5700 5707
5613 5609 5606 5603 5603 5600 5598 5596 5595 5594 5585 5580 5571 5566 5560 5554 5548 5545 5537 5533 5531 5539 5523 5557 5549 5554 5559 5579 5581 5593 5600 5604 5608 5612 5614 5624 5625 5647 5650 5658 5670 5675 5681 5689 5696
5602 5597 5593 5590 5588 5586 5585 5584 5583 5580 5572 5564 5554 5548 5541 5532 5526 5519 5507 5501 5498 5500 5501 5518 5518 5520 5534 5548 5558 5572 5578 5587 5590 5595 5589 5619 5619 5627 5646 5656 5655 5664 5670 5678 5685
5590 5584 5580 5578 5576 5574 5572 5571 5568 5564 5558 5547 5535 5526 5517 5507 5499 5494 5484 5482 5476 5475 5484 5485 5489 5501 5512 5521 5534 5543 5555 5564 5567 5570 5590 5613 5604 5612 5637 5638 5645 5653 5659 5667 5674
5578 5573 5568 5566 5564 5561 5559 5556 5551 5545 5539 5530 5517 5508 5495 5485 5481 5477 5470 5467 5474 5469 5470 5473 5481 5489 5499 5498 5513 5522 5533 5541 5550 5562 5589 5582 5586 5607 5623 5629 5634 5643 5648 5655 5662
5567 5562 5558 5555 5552 5549 5547 5542 5535 5526 5519 5508 5496 5485 5481 5477 5468 5466 5464 5463 5463 5463 5465 5463 5466 5476 5474 5486 5498 5508 5508 5545 5547 5551 5557 5563 5588 5594 5604 5621 5628 5632 5638 5644 5651
5556 5551 5547 5544 5541 5538 5534 5529 5519 5509 5501 5490 5479 5472 5466 5464 5461 5459 5456 5456 5453 5452 5454 5457 5452 5466 5474 5471 5480 5493 5515 5513 5522 5534 5544 5563 5573 5580 5592 5607 5614 5623 5627 5632 5639
5545 5542 5537 5533 5530 5526 5521 5514 5505 5494 5484 5477 5469 5463 5461 5455 5454 5452 5449 5447 5445 5445 5450 5452 5450 5458 5459 5464 5471 5480 5489 5499 5517 5526 5537 5551 5563 5569 5578 5592 5601 5611 5619 5625 5630
5536 5532 5527 5522 5519 5513 5507 5500 5494 5483 5471 5464 5460 5457 5454 5451 5447 5447 5443 5441 5440 5443 5447 5446 5445 5448 5446 5455 5465 5472 5482 5493 5496 5511 5529 5543 5554 5558 5565 5573 5591 5599 5608 5616 5621
5524 5521 5518 5511 5507 5501 5495 5488 5481 5473 5464 5456 5452 5450 5449 5445 5439 5439 5437 5437 5436 5439 5440 5440 5441 5444 5446 5451 5456 5459 5470 5481 5496 5510 5512 5520 5534 5551 5557 5565 5576 5586 5596 5606 5612
5515 5510 5506 5501 5496 5490 5483 5478 5468 5462 5456 5450 5448 5446 5442 5440 5440 5431 5431 5431 5433 5433 5435 5434 5435 5437 5438 5441 5447 5453 5461 5470 5482 5492 5507 5516 5532 5540 5550 5559 5567 5573 5582 5594 5602
5506 5501 5496 5491 5486 5479 5472 5466 5458 5454 5447 5445 5445 5440 5436 5434 5433 5430 5427 5427 5429 5427 5428 5428 5429 5432 5432 5434 5437 5445 5454 5462 5469 5482 5491 5513 5517 5532 5541 5551 5559 5566 5571 5581 5592
5496 5491 5486 5481 5476 5469 5464 5455 5449 5449 5438 5443 5434 5436 5432 5430 5427 5423 5422 5423 5421 5421 5420 5423 5424 5425 5426 5427 5429 5434 5443 5454 5464 5475 5484 5496 5502 5516 5526 5544 5552 5558 5563 5569 5580
5487 5482 5476 5473 5465 5459 5455 5445 5440 5436 5437 5433 5431 5429 5429 5424 5422 5421 5419 5418 5416 5415 5417 5418 5419 5420 5423 5424 5429 5435 5437 5447 5458 5466 5476 5483 5499 5505 5518 5528 5540 5548 5555 5562 5570